Olathe, KS

4:33 PM CST on February 23, 2017 (GMT -0600)
Johnson County Executive

Weather History for KOJC - May, 2012

Change the Weather History Date:

Saturday, May 26, 2012

  Actual Average Record
Temperature  
Mean Temperature 79 °F 68 °F  
Max Temperature 87 °F 78 °F 92 °F (1964)
Min Temperature 71 °F 58 °F 42 °F (1961)
Degree Days  
Heating Degree Days 0 1  
Month to date heating degree days 13 88  
Since 1 July heating degree days 3802 4919  
Cooling Degree Days 14 4  
Month to date cooling degree days 136 60  
Year to date cooling degree days 218 78  
Growing Degree Days 28 (Base 50)    
Moisture  
Dew Point 69 °F    
Average Humidity 73    
Maximum Humidity 84    
Minimum Humidity 61    
Precipitation  
Precipitation 0.00 in 0.16 in 1.94 in (1955)
Month to date precipitation 4.89 4.57  
Year to date precipitation 11.21 13.88  
Sea Level Pressure  
Sea Level Pressure 29.89 in    
Wind  
Wind Speed 12 mph (South)    
Max Wind Speed 22 mph    
Max Gust Speed 26 mph    
Visibility 10 miles    
Events      
T = Trace of Precipitation, MM = Missing Value Source: NWS Daily Summary

Daily Weather History Graph

Daily Weather History Graph

Search for Another Location

Airport or City:

Trip Planner

Search our weather history database for the weather conditions in past years. The results will help you decide how hot, cold, wet, or windy it might be!

Date:

Astronomy

May. 26, 2012 Rise Set
Actual Time 5:58 AM CDT 8:34 PM CDT
Civil Twilight 5:27 AM CDT 9:05 PM CDT
Nautical Twilight 4:48 AM CDT 9:44 PM CDT
Astronomical Twilight 4:05 AM CDT 10:27 PM CDT
Moon 10:59 AM CDT (5/26) 12:10 AM CDT (5/26)
Length of Visible Light 15h 38m
Length of Day
14h 36m
Waxing Crescent, 28% of the Moon is Illuminated
May 26
Waxing Crescent
May 28
First Quarter
Jun 4
Full
Jun 11
Last Quarter
Jun 19
New

Hourly Weather History & Observations

Time (CDT) Temp. Heat Index Dew Point Humidity Pressure Visibility Wind Dir Wind Speed Gust Speed Precip Events Conditions
12:53 AM 75.0 °F - 68.0 °F 79% 29.90 in 10.0 mi SSE 8.1 mph - N/A   Mostly Cloudy
1:53 AM 73.9 °F - 66.9 °F 79% 29.88 in 10.0 mi SE 4.6 mph - N/A   Partly Cloudy
2:53 AM 73.0 °F - 66.9 °F 81% 29.87 in 10.0 mi SSE 6.9 mph - N/A   Clear
3:53 AM 72.0 °F - 66.9 °F 84% 29.86 in 10.0 mi SSE 9.2 mph - N/A   Clear
4:53 AM 72.0 °F - 66.9 °F 84% 29.87 in 10.0 mi South 9.2 mph - N/A   Clear
5:53 AM 71.1 °F - 66.9 °F 87% 29.87 in 10.0 mi South 10.4 mph - N/A   Clear
6:53 AM 72.0 °F - 66.9 °F 84% 29.88 in 9.0 mi South 9.2 mph - N/A   Clear
7:53 AM 75.0 °F - 68.0 °F 79% 29.89 in 9.0 mi South 12.7 mph 20.7 mph N/A   Clear
8:53 AM 77.0 °F - 69.1 °F 76% 29.91 in 10.0 mi South 10.4 mph 19.6 mph N/A   Clear
9:53 AM 79.0 °F - 70.0 °F 74% 29.90 in 10.0 mi South 13.8 mph - N/A   Partly Cloudy
10:53 AM 81.0 °F 84.9 °F 71.1 °F 72% 29.91 in 10.0 mi South 15.0 mph - N/A   Partly Cloudy
11:20 AM 80.6 °F 84.6 °F 71.6 °F 74% 29.95 in 10.0 mi South 16.1 mph - N/A   Mostly Cloudy
11:53 AM 81.0 °F 85.2 °F 72.0 °F 74% 29.91 in 10.0 mi South 11.5 mph - N/A   Mostly Cloudy
12:53 PM 82.0 °F 86.7 °F 72.0 °F 71% 29.93 in 10.0 mi South 17.3 mph 24.2 mph N/A   Overcast
1:42 PM 82.4 °F 87.2 °F 71.6 °F 70% 29.95 in 9.0 mi South 18.4 mph 23.0 mph N/A   Partly Cloudy
1:53 PM 82.0 °F 86.3 °F 71.1 °F 69% 29.91 in 9.0 mi South 17.3 mph 23.0 mph N/A   Partly Cloudy
2:53 PM 84.0 °F 89.6 °F 72.0 °F 67% 29.90 in 10.0 mi South 15.0 mph 23.0 mph N/A   Clear
3:53 PM 86.0 °F 93.0 °F 73.0 °F 65% 29.88 in 10.0 mi SSE 16.1 mph - N/A   Clear
4:53 PM 84.9 °F 90.7 °F 72.0 °F 65% 29.86 in 10.0 mi South 16.1 mph 24.2 mph N/A   Clear
5:45 PM 86.0 °F 91.8 °F 71.6 °F 62% 29.91 in 10.0 mi South 18.4 mph 24.2 mph N/A   Clear
5:53 PM 86.0 °F 91.5 °F 71.1 °F 61% 29.87 in 10.0 mi South 13.8 mph 23.0 mph N/A   Clear
6:53 PM 84.0 °F 87.8 °F 69.1 °F 61% 29.86 in 10.0 mi South 13.8 mph - N/A   Clear
7:53 PM 82.9 °F 86.5 °F 69.1 °F 63% 29.86 in 10.0 mi SSE 11.5 mph - N/A   Clear
8:53 PM 79.0 °F - 68.0 °F 69% 29.87 in 10.0 mi South 8.1 mph - N/A   Clear
9:53 PM 78.1 °F - 66.9 °F 68% 29.86 in 10.0 mi South 10.4 mph - N/A   Clear
10:53 PM 77.0 °F - 64.9 °F 66% 29.87 in 10.0 mi South 9.2 mph - N/A   Clear
11:53 PM 75.9 °F - 64.0 °F 67% 29.86 in 10.0 mi South 8.1 mph - N/A   Clear